Regional Weather Roundup
Issued by NWS

Home | Current Version | Previous Version | Graphics & Text | Print | Product List | Glossary On
Versions: 1 2 3 4 5 6 7 8 9 10 11 12 13 14 15 16 17 18 19 20 21 22 23 24 25 26 27 28 29 30 31 32 33 34 35 36 37 38 39 40 41 42 43 44 45 46 47 48 49 50
000
ASUS43 KOAX 300710
RWRNE

WEATHER ROUNDUP FOR NEBRASKA
NATIONAL WEATHER SERVICE OMAHA NE
200 AM CDT MON MAY 30 2016

NOTES: SATELLITE DATA IS BEING USED TO AUGMENT CLOUD COVER ABOVE
       12000 FEET.
       "FAIR" INDICATES FEW OR NO CLOUDS BELOW 12,000 FEET WITH NO
       SIGNIFICANT WEATHER AND/OR OBSTRUCTIONS TO VISIBILITY.

  * THESE STATIONS DO NOT REPORT WEATHER SUCH AS RAIN...SNOW OR FOG.

NEZ001>004-019>022-054>056-300800-
NEBRASKA PANHANDLE

CITY           SKY/WX    TMP DP  RH WIND       PRES   REMARKS
SCOTTSBLUFF    CLOUDY    58  44  60 SE7       30.03S
ALLIANCE       CLOUDY    57  52  83 SW12      30.03S
CHADRON        CLOUDY    51  47  86 S7        29.97S
KIMBALL        CLOUDY    53  52  96 S5        30.10S
SIDNEY         CLOUDY    58  50  75 S18G24    30.08S
$$

NEZ057>060-069>072-079>082-300800-
SOUTHWEST NEBRASKA

CITY           SKY/WX    TMP DP  RH WIND       PRES   REMARKS
NORTH PLATTE   CLOUDY    61  52  72 VRB5      30.03F
IMPERIAL       CLOUDY    59  53  80 S13       30.08F
LEXINGTON      CLOUDY    64  51  64 SW10      30.04F
MCCOOK         CLOUDY    62  51  67 S6        30.07S
OGALLALA       CLOUDY    60  51  72 S14       30.00F
$$

NEZ005>010-023>029-035>040-094-300800-
NORTH CENTRAL NEBRASKA

CITY           SKY/WX    TMP DP  RH WIND       PRES   REMARKS
VALENTINE      CLOUDY    62  50  64 SE6       29.98F
AINSWORTH      CLOUDY    64  51  62 SW15      29.99F
BROKEN BOW     CLOUDY    59  56  89 S5        30.02F
O`NEILL        CLOUDY    66  59  78 E6        30.00F
ORD            CLOUDY    66  53  63 S17       29.97F
THEDFORD       CLOUDY    65  51  59 S14G20    30.00F
$$

NEZ041-046>049-061>064-073>077-083>087-300800-
SOUTH CENTRAL NEBRASKA

CITY           SKY/WX    TMP DP  RH WIND       PRES   REMARKS
GRAND ISLAND   CLOUDY    67  51  56 SW15      30.01F
AURORA         CLOUDY    65  53  64 W10       30.00F
HASTINGS       CLOUDY    65  50  58 S7        30.02F
HEBRON         CLOUDY    66  52  60 SW8       29.98F
HOLDREGE       CLOUDY    63  50  63 S3        30.05F
KEARNEY *      CLOUDY    63  52  67 S12       30.05F
YORK           CLOUDY    68  50  52 SW9       29.99F
$$

NEZ011>018-030>034-042>045-300800-
NORTHEAST NEBRASKA

CITY           SKY/WX    TMP DP  RH WIND       PRES   REMARKS
NORFOLK        CLOUDY    65  58  78 SW3       30.01F
ALBION         CLOUDY    66  56  71 S5        30.01F
BLAIR          CLOUDY    70  59  69 SW3       30.01S
FREMONT        CLOUDY    68  58  71 CALM      30.01S
TEKAMAH          N/A    N/A N/A N/A MISG      29.99F
WAYNE          CLOUDY    64  59  85 S5        30.02F
$$

NEZ050>053-065>068-078-088>093-300800-
SOUTHEAST NEBRASKA

CITY           SKY/WX    TMP DP  RH WIND       PRES   REMARKS
LINCOLN        CLOUDY    67  59  75 CALM      30.00F
OMAHA EPPLEY   CLOUDY    71  60  68 S5        29.99F
BEATRICE       CLOUDY    67  59  74 E6        30.01R
FALLS CITY     CLOUDY    67  64  90 SW5       30.01F
NEBRASKA CITY  MOCLDY    66  62  86 S6        30.01F
PLATTSMOUTH    CLOUDY    74  59  61 S9        30.00F
$$

NEZ044-045-051>053-067-300800-
OMAHA AREA

CITY           SKY/WX    TMP DP  RH WIND       PRES   REMARKS
OMAHA EPPLEY   CLOUDY    71  60  68 S5        29.99F
BLAIR          CLOUDY    70  59  69 SW3       30.01S
FREMONT        CLOUDY    68  58  71 CALM      30.01S
MILLARD        CLOUDY    69  60  73 CALM      30.00S
OFFUTT AFB     CLOUDY    71  60  68 S5        29.99S
PLATTSMOUTH    CLOUDY    74  59  61 S9        30.00F
WAHOO          FAIR      67  61  80 CALM      30.00F
$$




USA.gov is the U.S. government's official web portal to all federal, state and local government web resources and services.